CW7724 Weather Reports


time (UTC)temp
C
wind
direction
speed
KPH
gust
KPH
rain 1hr
cm
rain 24hr
cm
rain mn
cm
humidity
%
barometer
mb
20260510190026 18 42 0.0 16.1 0.00 0.00 0.00 38 1007.4
20260510184523 18 35 0.0 11.3 0.00 0.00 0.00 38 1007.7
20260510183022 21 323 0.0 0.0 0.00 0.00 0.00 26 1007.8
20260510181529 21 221 1.6 19.3 0.00 0.00 0.00 25 1007.3
20260510180016 21 251 0.0 8.0 0.00 0.00 0.00 25 1007.2
20260510174515 21 263 3.2 11.3 0.00 0.00 0.00 25 1007.0
20260510173015 21 242 0.0 3.2 0.00 0.00 0.00 31 1007.0
20260510171510 22 40 1.6 8.0 0.00 0.00 0.00 27 1006.9
20260510170008 22 63 0.0 6.4 0.00 0.00 0.00 28 1006.9
20260510164512 21 360 1.6 14.5 0.00 0.00 0.00 29 1006.8
20260510163001 21 81 0.0 16.1 0.00 0.00 0.00 29 1006.4
20260510161556 20 65 1.6 17.7 0.00 0.00 0.00 29 1006.2
20260510160054 20 28 1.6 16.1 0.00 0.00 0.00 28 1006.2
20260510154557 20 24 1.6 17.7 0.00 0.00 0.00 28 1006.1
20260510153050 20 44 1.6 14.5 0.00 0.00 0.00 28 1005.9
20260510151553 20 98 1.6 12.9 0.00 0.00 0.00 28 1005.9
20260510150043 20 37 1.6 14.5 0.00 0.00 0.00 27 1005.9
20260510144547 20 69 1.6 12.9 0.00 0.00 0.00 26 1005.8
20260510143030 19 336 0.0 17.7 0.00 0.00 0.00 27 1005.7
20260510141526 17 351 0.0 1.6 0.00 0.00 0.00 29 1005.7
20260510140019 13 308 0.0 0.0 0.00 0.00 0.00 40 1005.8
20260510134516 9 309 0.0 0.0 0.00 0.00 0.00 56 1005.7
20260510133013 9 313 0.0 0.0 0.00 0.00 0.00 54 1005.5
20260510131525 7 315 0.0 0.0 0.00 0.00 0.00 60 1005.3
20260510130039 6 313 0.0 0.0 0.00 0.00 0.00 59 1005.2
20260510124538 5 313 0.0 0.0 0.00 0.00 0.00 61 1005.0
20260510123029 5 313 0.0 0.0 0.00 0.00 0.00 61 1004.8
20260510121530 5 313 0.0 0.0 0.00 0.00 0.00 60 1004.7
20260510120028 6 309 0.0 0.0 0.00 0.00 0.00 58 1004.5
20260510114520 6 309 0.0 0.0 0.00 0.00 0.00 55 1004.3
20260510113019 7 309 0.0 0.0 0.00 0.00 0.00 54 1004.1
20260510111512 7 311 0.0 0.0 0.00 0.00 0.00 52 1004.1
20260510110010 8 309 0.0 0.0 0.00 0.00 0.00 48 1004.2
20260510104511 8 309 0.0 0.0 0.00 0.00 0.00 47 1004.2
20260510103007 9 297 0.0 0.0 0.00 0.00 0.00 47 1004.1
20260510101506 8 302 0.0 0.0 0.00 0.00 0.00 47 1004.2
20260510100006 9 296 0.0 0.0 0.00 0.00 0.00 46 1003.7
20260510094507 8 298 0.0 0.0 0.00 0.00 0.00 47 1003.5
20260510093002 8 304 0.0 0.0 0.00 0.00 0.00 47 1003.5
20260510091501 8 317 0.0 0.0 0.00 0.00 0.00 47 1003.4
20260510090058 8 325 0.0 0.0 0.00 0.00 0.00 46 1003.4
20260510084600 8 334 0.0 0.0 0.00 0.00 0.00 45 1003.4
20260510083054 8 325 0.0 0.0 0.00 0.00 0.00 44 1003.4
20260510081552 8 318 0.0 0.0 0.00 0.00 0.00 44 1003.4
20260510074552 9 321 0.0 0.0 0.00 0.00 0.00 43 1003.6
20260510073106 8 317 0.0 0.0 0.00 0.00 0.00 45 1003.7
20260510071546 9 318 0.0 0.0 0.00 0.00 0.00 43 1003.8
20260510070048 8 315 0.0 0.0 0.00 0.00 0.00 44 1003.6
20260510064600 8 324 0.0 0.0 0.00 0.00 0.00 45 1003.8
20260510063039 8 325 0.0 0.0 0.00 0.00 0.00 44 1003.9
20260510061538 8 332 0.0 0.0 0.00 0.00 0.00 45 1003.9
20260510060037 8 322 0.0 0.0 0.00 0.00 0.00 44 1004.1
20260510054540 9 327 0.0 0.0 0.00 0.00 0.00 43 1004.1
20260510053041 9 319 0.0 0.0 0.00 0.00 0.00 42 1004.3
20260510051545 10 324 0.0 0.0 0.00 0.00 0.00 42 1004.4
20260510050029 10 319 0.0 0.0 0.00 0.00 0.00 41 1004.4
20260510044529 10 331 0.0 0.0 0.00 0.00 0.00 42 1004.6
20260510043026 10 328 0.0 0.0 0.00 0.00 0.00 42 1004.5
20260510041528 10 337 0.0 0.0 0.00 0.00 0.00 42 1004.4
20260510040028 10 319 0.0 0.0 0.00 0.00 0.00 42 1004.2
20260510034525 10 324 0.0 0.0 0.00 0.00 0.00 42 1004.3
20260510033023 10 321 0.0 0.0 0.00 0.00 0.00 42 1004.2
20260510031529 11 319 0.0 0.0 0.00 0.00 0.00 42 1004.0
20260510030021 11 200 0.0 0.0 0.00 0.00 0.00 42 1003.8
20260510024521 12 193 0.0 0.0 0.00 0.00 0.00 41 1003.5
20260510023019 13 191 0.0 0.0 0.00 0.00 0.00 39 1003.2
20260510021525 14 191 0.0 0.0 0.00 0.00 0.00 37 1003.0
20260510020025 16 191 0.0 0.0 0.00 0.00 0.00 33 1002.9
20260510014517 18 191 0.0 0.0 0.00 0.00 0.00 30 1002.8
20260510013017 21 198 0.0 0.0 0.00 0.00 0.00 24 1002.6
20260510011515 22 190 0.0 0.0 0.00 0.00 0.00 19 1002.6
20260510010014 23 223 0.0 0.0 0.00 0.00 0.00 17 1002.6
20260510004513 23 251 0.0 0.0 0.00 0.00 0.00 18 1002.5
20260510003013 23 197 0.0 0.0 0.00 0.00 0.00 17 1002.6
20260510001542 23 300 0.0 11.3 0.00 0.00 0.00 18 1002.5
20260510000041 23 222 0.0 6.4 0.00 0.00 0.00 17 1002.8
20260509234538 23 246 0.0 4.8 0.00 0.00 0.00 17 1002.9
20260509233035 24 294 1.6 14.5 0.00 0.00 0.00 16 1002.8
20260509231535 23 288 0.0 16.1 0.00 0.00 0.00 18 1002.8
20260509230032 23 240 3.2 14.5 0.00 0.00 0.00 18 1003.0
20260509224529 23 251 3.2 22.5 0.00 0.00 0.00 17 1003.2
20260509223027 24 259 0.0 9.7 0.00 0.00 0.00 17 1003.3
20260509221525 24 242 0.0 24.1 0.00 0.00 0.00 18 1003.4
20260509220035 24 308 0.0 6.4 0.00 0.00 0.00 16 1003.6
20260509214520 23 289 0.0 11.3 0.00 0.00 0.00 18 1004.0
20260509213019 23 200 0.0 20.9 0.00 0.00 0.00 16 1004.3
20260509211519 23 340 0.0 16.1 0.00 0.00 0.00 18 1004.4
20260509210014 23 221 1.6 14.5 0.00 0.00 0.00 16 1004.7
20260509204513 23 322 0.0 24.1 0.00 0.00 0.00 18 1005.0
20260509203022 23 294 1.6 17.7 0.00 0.00 0.00 18 1005.2
20260509201508 23 286 0.0 16.1 0.00 0.00 0.00 19 1005.2
20260509200006 23 240 3.2 12.9 0.00 0.00 0.00 17 1005.5
20260509194502 23 197 3.2 27.4 0.00 0.00 0.00 17 1005.6
20260509193002 23 186 0.0 16.1 0.00 0.00 0.00 19 1005.5
20260509191604 23 215 1.6 12.9 0.00 0.00 0.00 21 1005.7